SCP
-0 0 0 0 0 0 0 0 0 0 0 0 0 0 0 0 0 0 0 0 0 0 0 0 0 0 0
0 0 0 0 0 0 0 0 0 0 0 0 0 0 0 0 0 0 0 0 0 0 0 0 0 0 0
0 0 0 0 0 0 0 0 0 0 0 0 0 0 0 0 0 0 0 0 0 0 0 0 0 0 0
0 0 0 0 0 0 0 0 0 0 0 0 0 0 0 0 0 0 0 0 0 0 0 0 0 0 0
0 0 0 0 0 0 0 0 0 0 0 0 0 0 0 0 0 0 0 0 0 0 0 0 0 0 0
0 0 0 0 0 0 0 0 0 0 0 0 0 0 0 0 0 0 0 0 0 0 0 0 0 0 0
0 0 0 0 0 0 0 0 0 0 0 0 0 0 0 0 0 0 0 0 0 0 0 0 0 0 0
0 0 0 0 0 0 0 0 0 0 0 0 0 0 0 0 0 0 0 0 0 0 0 0 0 0 0
0 0 0 0 0 0 0 0 0 0 0 0 0 0 0 0 0 0 0 0 0 0 0 0 0 0 0
0 0 0 0 0 0 0 0 0 0 0 0 0 0 0 0 0 0 0 0 0 0 0 0 0 0 0
0 0 0 0 0 0 0 0 0 0 0 0 0 0 0 0 0 0 0 0 0 0 0 0 0 0 0
0 0 0 0 0 0 0 0 0 0 0 0 0 0 0 0 0 0 0 0 0 0 0 0 0 0 0
0 0 0 0 0 0 0 0 0 0 0 0 0 0 0 0 0 0 0 0 0 0 0 0 0 0 0
0 0 0 0 0 0 0 0 0 0 0 0 0 0 0 0 0 0 0 0 0 0 0 0 0 0 0
0 0 0 0 0 0 0 0 0 0 0 0 0 0 0 0 0 0 0 0 0 0 0 0 0 0 0
0 0 0 0 0 0 0 0 0 0 0 0 0 0 0 0 0 0 0 0 0 0 0 0 0 0 0
Wind_Speed_500mb
29 27 25 23 22 19 16 14 12 12 11 10 14 17 18 18 17 17 13 12 9 5 4 3 2 2 2
32 33 30 27 28 25 20 18 17 16 17 15 14 16 18 20 19 19 18 15 12 7 4 3 4 4 4
30 33 35 35 31 23 21 19 19 17 18 16 18 20 23 22 22 16 17 17 16 12 9 7 7 8 8
25 28 28 30 24 20 17 19 18 20 21 16 22 22 20 20 28 28 21 17 19 17 15 13 12 12 12
26 24 23 21 16 22 21 21 27 25 28 28 25 22 21 22 25 27 30 26 26 23 21 18 17 17 17
30 28 24 21 24 23 26 20 22 24 23 23 24 22 21 21 22 26 27 25 28 24 23 22 22 22 22
30 31 24 21 19 23 28 31 30 22 20 22 21 21 27 20 20 23 22 25 27 29 28 24 22 23 26
25 27 28 29 24 22 18 17 19 19 22 24 24 23 27 22 21 20 23 25 25 29 29 30 29 27 28
30 35 34 26 21 16 12 8 6 12 17 20 21 28 27 25 28 25 24 24 29 33 32 34 34 36 34
31 37 34 29 21 13 8 5 9 13 16 19 20 24 29 31 32 23 28 30 35 38 36 34 31 32 35
33 34 30 27 22 17 11 7 9 8 7 9 9 13 11 16 20 22 23 26 30 31 33 31 39 34 32
33 36 33 28 25 20 12 5 2 7 11 13 14 14 15 15 17 17 19 26 28 30 31 34 35 38 42
37 32 31 24 21 13 10 9 6 5 2 4 8 10 13 16 16 17 23 23 28 32 35 40 45 45 30
32 31 30 29 27 24 21 16 12 9 6 5 5 7 10 11 14 17 19 21 25 28 28 30 16 20 23
43 39 35 30 27 22 21 18 17 15 13 12 11 12 12 12 15 18 20 22 25 27 26 15 12 11 36
39 32 24 22 23 22 19 18 16 14 13 14 15 16 17 20 20 24 27 28 29 30 25 23 18 22 17
Wind_Direction_500mb
220 225 230 233 238 239 245 245 247 248 275 294 315 325 332 339 346 357 355 352 348 355 351 344 352 352 335
215 223 223 232 237 244 250 251 251 247 258 276 296 309 317 321 332 345 353 344 342 332 313 312 317 308 305
216 217 225 228 236 234 240 251 263 266 270 278 283 304 308 319 311 320 332 339 333 326 313 301 294 297 302
224 220 222 229 228 226 238 250 255 263 261 274 288 293 294 307 321 324 310 323 330 322 309 299 295 296 296
234 223 215 222 225 223 235 248 255 249 255 265 279 294 296 299 307 321 327 332 329 322 315 302 296 294 294
232 226 208 199 201 215 225 237 249 261 269 270 273 283 287 297 305 307 315 322 330 330 319 313 304 297 295
225 220 198 188 185 204 212 222 231 240 249 264 269 284 280 281 291 307 297 305 311 320 320 315 312 305 297
214 197 183 190 190 197 213 233 240 245 246 247 253 259 264 254 265 279 283 291 295 296 303 305 303 303 307
181 176 178 180 181 190 180 206 222 268 278 270 266 258 251 256 254 265 265 277 289 288 285 284 293 302 305
165 172 176 176 172 173 173 233 260 276 277 279 277 270 263 259 258 260 271 274 289 294 288 292 285 289 298
150 158 160 156 162 159 183 205 255 278 293 297 303 327 345 335 310 297 293 289 289 296 296 295 291 296 296
128 135 139 142 146 135 139 136 312 288 312 322 331 338 327 320 316 312 318 310 309 306 302 301 298 296 297
124 129 131 131 126 129 121 118 132 136 183 288 302 306 308 305 311 316 303 305 302 300 303 299 298 301 298
120 120 122 116 111 107 103 106 103 89 76 47 19 356 344 322 308 306 309 313 308 311 317 320 318 310 303
105 104 104 102 101 102 100 94 84 74 65 57 42 29 16 9 3 1 355 352 352 348 348 355 332 308 319
106 102 102 110 113 106 96 85 80 68 59 50 38 29 22 21 18 16 13 11 7 6 6 7 349 322 320
Wind_Speed_850mb
29 27 25 23 22 19 16 14 12 12 11 10 14 17 18 18 17 17 13 12 9 5 4 3 2 2 2
32 33 30 27 28 25 20 18 17 16 17 15 14 16 18 20 19 19 18 15 12 7 4 3 4 4 4
30 33 35 35 31 23 21 19 19 17 18 16 18 20 23 22 22 16 17 17 16 12 9 7 7 8 8
25 28 28 30 24 20 17 19 18 20 21 16 22 22 20 20 28 28 21 17 19 17 15 13 12 12 12
26 24 23 21 16 22 21 21 27 25 28 28 25 22 21 22 25 27 30 26 26 23 21 18 17 17 17
30 28 24 21 24 23 26 20 22 24 23 23 24 22 21 21 22 26 27 25 28 24 23 22 22 22 22
30 31 24 21 19 23 28 31 30 22 20 22 21 21 27 20 20 23 22 25 27 29 28 24 22 23 26
25 27 28 29 24 22 18 17 19 19 22 24 24 23 27 22 21 20 23 25 25 29 29 30 29 27 28
30 35 34 26 21 16 12 8 6 12 17 20 21 28 27 25 28 25 24 24 29 33 32 34 34 36 34
31 37 34 29 21 13 8 5 9 13 16 19 20 24 29 31 32 23 28 30 35 38 36 34 31 32 35
33 34 30 27 22 17 11 7 9 8 7 9 9 13 11 16 20 22 23 26 30 31 33 31 39 34 32
33 36 33 28 25 20 12 5 2 7 11 13 14 14 15 15 17 17 19 26 28 30 31 34 35 38 42
37 32 31 24 21 13 10 9 6 5 2 4 8 10 13 16 16 17 23 23 28 32 35 40 45 45 30
32 31 30 29 27 24 21 16 12 9 6 5 5 7 10 11 14 17 19 21 25 28 28 30 16 20 23
43 39 35 30 27 22 21 18 17 15 13 12 11 12 12 12 15 18 20 22 25 27 26 15 12 11 36
39 32 24 22 23 22 19 18 16 14 13 14 15 16 17 20 20 24 27 28 29 30 25 23 18 22 17
Wind_Direction_850mb
220 225 230 233 238 239 245 245 247 248 275 294 315 325 332 339 346 357 355 352 348 355 351 344 352 352 335
215 223 223 232 237 244 250 251 251 247 258 276 296 309 317 321 332 345 353 344 342 332 313 312 317 308 305
216 217 225 228 236 234 240 251 263 266 270 278 283 304 308 319 311 320 332 339 333 326 313 301 294 297 302
224 220 222 229 228 226 238 250 255 263 261 274 288 293 294 307 321 324 310 323 330 322 309 299 295 296 296
234 223 215 222 225 223 235 248 255 249 255 265 279 294 296 299 307 321 327 332 329 322 315 302 296 294 294
232 226 208 199 201 215 225 237 249 261 269 270 273 283 287 297 305 307 315 322 330 330 319 313 304 297 295
225 220 198 188 185 204 212 222 231 240 249 264 269 284 280 281 291 307 297 305 311 320 320 315 312 305 297
214 197 183 190 190 197 213 233 240 245 246 247 253 259 264 254 265 279 283 291 295 296 303 305 303 303 307
181 176 178 180 181 190 180 206 222 268 278 270 266 258 251 256 254 265 265 277 289 288 285 284 293 302 305
165 172 176 176 172 173 173 233 260 276 277 279 277 270 263 259 258 260 271 274 289 294 288 292 285 289 298
150 158 160 156 162 159 183 205 255 278 293 297 303 327 345 335 310 297 293 289 289 296 296 295 291 296 296
128 135 139 142 146 135 139 136 312 288 312 322 331 338 327 320 316 312 318 310 309 306 302 301 298 296 297
124 129 131 131 126 129 121 118 132 136 183 288 302 306 308 305 311 316 303 305 302 300 303 299 298 301 298
120 120 122 116 111 107 103 106 103 89 76 47 19 356 344 322 308 306 309 313 308 311 317 320 318 310 303
105 104 104 102 101 102 100 94 84 74 65 57 42 29 16 9 3 1 355 352 352 348 348 355 332 308 319
106 102 102 110 113 106 96 85 80 68 59 50 38 29 22 21 18 16 13 11 7 6 6 7 349 322 320